Location: Fort Worth, Tx
(32.7431°N, 97.3695°W)
Time: 09:01:47
(UTC-04:00)

Explorer 11/Cluster Stage 4 - Pass Details

Date: 03 February 2023
Orbit: 466 x 1241 km, 28.8° (Epoch: 02 April)

Event Time Altitude Azimuth Distance (km) Brightness Sun altitude
Exits shadow 06:36:55 26° 231° (SW) 2,162 8.4 -22.6°
Maximum altitude 06:41:26 55° 166° (SSE) 1,456 7.9 -21.6°
Drops below altitude 10° 06:49:20 10° 92° (E) 3,181 10.9 -20.0°
Sets 06:52:15 0° 88° (E) 4,106 11.8 -19.4°
